Zurück zum Katalog

DELTA 1 DEB

AktivSSO
NORAD 12290·DEBRIS·🇺🇸 United States

Gestartet Mar 5, 1978 von Vandenberg Space Force Base

Loading…

Nächste Überflüge (nächste 24 Stunden)

TLE

AktuellSource: Space-Track

Epoche: Sep 14, 2026, 10:58 UTC

1 12290U 78026EJ  26257.45737510  .00000226  00000-0  13968-3 0  9991
2 12290  99.1346 262.4220 0081417  53.0833 307.7763 14.13591021326404

Verfolge DELTA 1 DEB in Echtzeit mit AllMySat

Download on the App Store